Location: Dana
(41.8364°N, 106.7042°W)
Time: 00:51:20
(UTC+00:00)

Explorer 11/Cluster Stage 4 - All Passes

Search period start: 14 May 2026 00:00
Search period end: 24 May 2026 00:00
Orbit: 463 x 1174 km, 28.8° (Epoch: 13 May)

Date Brightness Start Highest point End Pass type
(mag) Time Alt. Az. Time Alt. Az. Time Alt. Az.
14 May - 05:02:30 10° SSW 05:05:52 14° SSE 05:08:59 10° SE visible
14 May - 06:48:27 10° SW 06:52:50 20° S 06:56:41 10° SE night (unlit)
14 May - 08:36:13 10° SW 08:39:35 17° SSW 08:42:36 10° SSE night (unlit)
15 May - 04:37:11 10° SSW 04:41:03 16° SSE 04:44:38 10° SE visible
15 May - 06:23:17 10° SW 06:28:05 22° S 06:32:17 10° SE night (unlit)
15 May - 08:11:06 10° SW 08:14:54 18° SSW 08:18:16 10° SSE night (unlit)
16 May - 04:11:54 10° SSW 04:16:12 17° SSE 04:20:10 10° SE visible
16 May - 05:58:06 10° SW 06:03:17 23° S 06:07:50 10° SE visible
16 May - 07:45:57 10° WSW 07:50:11 20° SSW 07:53:54 10° SSE night (unlit)
17 May - 03:46:41 10° SSW 03:51:19 18° SSE 03:55:38 10° SE visible
17 May - 05:32:56 10° SW 05:38:27 25° S 05:43:20 10° SE visible
17 May - 07:20:48 10° WSW 07:25:26 21° SSW 07:29:29 10° SE night (unlit)
18 May - 03:21:30 10° SSW 03:26:24 18° SSE 03:31:01 10° ESE visible
18 May - 05:07:46 10° SW 05:13:35 26° S 05:18:46 10° ESE visible
18 May - 06:55:38 10° WSW 07:00:38 22° SSW 07:05:02 10° SE night (unlit)
18 May - 08:46:21 10° SW 08:47:11 10° SSW 08:47:59 10° SSW night (unlit)
19 May - 02:56:21 10° SSW 03:01:27 19° SSE 03:06:20 10° ESE visible
19 May - 04:42:37 10° SW 04:48:41 27° S 04:54:10 10° ESE visible
19 May - 06:30:28 10° WSW 06:35:49 23° SSW 06:40:31 10° SE visible
19 May - 08:20:38 10° SW 08:22:25 11° SSW 08:24:08 10° S night (unlit)
20 May - 02:31:16 10° SSW 02:36:30 20° SSE 02:41:35 10° ESE daylight
20 May - 04:17:30 10° SW 04:23:45 28° S 04:29:29 10° ESE visible
20 May - 06:05:18 10° WSW 06:10:56 24° SSW 06:15:57 10° SE visible
20 May - 07:55:12 10° SW 07:57:38 12° SSW 07:59:57 10° S night (unlit)
21 May - 02:06:14 10° SSW 02:11:31 20° SSE 02:16:45 10° ESE daylight
21 May - 03:52:25 10° SW 03:58:47 28° S 04:04:46 10° ESE visible
21 May - 05:40:10 10° WSW 05:46:02 25° SSW 05:51:21 10° SE visible
21 May - 07:29:52 10° SW 07:32:49 13° SSW 07:35:35 10° S night (unlit)
22 May - 01:41:15 10° SSW 01:46:32 20° SSE 01:51:52 10° ESE daylight
22 May - 03:27:22 10° SW 03:33:49 29° S 03:39:58 10° ESE visible
22 May - 05:15:03 10° WSW 05:21:06 26° SSW 05:26:40 10° SE visible
22 May - 07:04:35 10° SW 07:07:57 14° SSW 07:11:08 10° S visible
23 May - 01:16:20 10° SSW 01:21:34 20° SSE 01:26:55 10° ESE daylight
23 May - 03:02:21 10° SW 03:08:49 29° S 03:15:08 10° ESE visible
23 May - 04:49:57 10° WSW 04:56:09 27° S 05:01:56 10° SE visible
23 May - 06:39:21 10° WSW 06:43:04 15° SSW 06:46:35 10° S visible
